Weather in Melnikovo

Russia / Kaliningrad Oblast     54°52′25″N   20°28′12″E
temp.,
°C
wind,
m/s
gust,
m/s
humid.,
%
clouds,
%
prec.,
mm/h
press.,
hPa
HPBL,
m
15 april, thu
thu1523:00+5n51178100 0.0 1023561
02:00+3nne71290100 0.3 1023677
05:00+2nne81597100 1.1 1022643
08:00+3nne81497100 1.8 1022603
11:00+6nne7137574 0.0 1022885
14:00+8ne6116597 0.0 10211069
17:00+10ne61161100 0.0 10211349
20:00+7ne61264100 0.0 1021503
16 april, fri
fri1623:00+6nne61261100 0.0 1021432
02:00+5nne51070100 0.0 1020658
05:00+4nne6981100 0.1 1019501
08:00+4nne6989100 0.2 1019431
11:00+5nne5888100 0.1 1019428
14:00+5nne5992100 0.4 1019444
17:00+6nne5892100 0.3 1019467
20:00+6nne3894100 0.3 1020263
17 april, sat
sat1723:00+7nne4894100 0.1 1021221
02:00+7nne4894100 0.1 1020239
05:00+7ne4995100 0.0 1021297
08:00+7ne4996100 0.4 1021372
11:00+10ene468997 0.1 1021566
14:00+11e3684100 0.3 1022620
17:00+11ne368561 0.2 1022347
20:00+8ne3692100 0.4 1023110
18 april, sun
sun1823:00+7ene369491 0.0 102397
02:00+6ene3796100 0.0 1023150
05:00+6ene3895100 0.0 1023163
08:00+9ne3889100 0.0 1023305
11:00+13ene5873100 0.0 1022993
14:00+16ene5761100 0.4 10211359
17:00+15e486888 1.5 1021732
20:00+11ene377872 1.8 1022100
19 april, mon
mon1923:00+9e348896 0.1 102375
02:00+10e3589100 0.1 1023137
05:00+9e3691100 0.0 1023156
08:00+10e3790100 0.0 1023244
11:00+14e476594 0.3 1023790
14:00+14ese466437 1.1 10231142
17:00+13e48665 0.6 1022442
20:00+10ene49746 0.6 1022146